Location: Quebec
(46.8000°N, 71.2500°W)
Time: 20:06:39
(UTC-04:00)

ISS - Pass Details

Date: 13 October 2017
Orbit: 401 x 408 km, 51.6° (Epoch: 17 October)

Event Time Altitude Azimuth Distance (km) Brightness Sun altitude
Rises 18:41:43 0° 295° (WNW) 2,325 1.2 -7.7°
Reaches altitude 10° 18:43:48 10° 293° (WNW) 1,464 0.1 -8.1°
Maximum altitude 18:47:04 71° 209° (SSW) 432 -3.6 -8.6°
Drops below altitude 10° 18:50:20 10° 125° (SE) 1,461 -1.5 -9.2°
Enters shadow 18:50:39 - 125° (SE) 1,587 -1.3 -9.2°
